Location: Chuathbaluk
(61.5726°N, 159.2454°W)
Time: 13:47:24
(UTC+00:00)

XW-2F - Pass Details

Date: 26 January 2021
Orbit: 500 x 520 km, 97.5° (Epoch: 01 March)

Event Time Altitude Azimuth Distance (km) Brightness Sun altitude
Rises 04:40:05 0° 200° (SSW) 2,623 ? -15.2°
Reaches altitude 10° 04:42:30 10° 215° (SW) 1,745 ? -15.5°
Maximum altitude 04:45:32 23° 269° (W) 1,151 ? -15.9°
Drops below altitude 10° 04:48:36 10° 323° (NW) 1,765 ? -16.2°
Sets 04:51:04 0° 338° (NNW) 2,661 ? -16.5°
